Millinocket, ME

6:24 AM EST on January 20, 2018 (GMT -0500)
Millinocket Municipal

Weather History for KMLT - December, 2012

Change the Weather History Date:

Saturday, December 29, 2012

  Actual Average Record
Temperature  
Mean Temperature 23 °F 17 °F  
Max Temperature 26 °F 26 °F 53 °F (1982)
Min Temperature 19 °F 8 °F -28 °F (1933)
Degree Days  
Heating Degree Days 42 48  
Month to date heating degree days 1133 1227  
Since 1 July heating degree days 2776 3070  
Cooling Degree Days 0 0  
Month to date cooling degree days 0 0  
Year to date cooling degree days 443 268  
Moisture  
Dew Point 15 °F    
Average Humidity 76    
Maximum Humidity 84    
Minimum Humidity 68    
Precipitation  
Precipitation T in 0.07 in 1.08 in (1966)
Month to date precipitation 3.00 3.39  
Year to date precipitation 38.56 42.54  
Sea Level Pressure  
Sea Level Pressure 29.86 in    
Wind  
Wind Speed 6 mph (NNW)    
Max Wind Speed 14 mph    
Max Gust Speed 21 mph    
Visibility 10 miles    
Events Snow    
T = Trace of Precipitation, MM = Missing Value Source: NWS Daily Summary

Daily Weather History Graph

Daily Weather History Graph

Search for Another Location

Airport or City:

Trip Planner

Search our weather history database for the weather conditions in past years. The results will help you decide how hot, cold, wet, or windy it might be!

Date:

Astronomy

Dec. 29, 2012 Rise Set
Actual Time 7:15 AM EST 3:59 PM EST
Civil Twilight 6:40 AM EST 4:33 PM EST
Nautical Twilight 6:03 AM EST 5:11 PM EST
Astronomical Twilight 5:27 AM EST 5:47 PM EST
Moon 5:34 PM EST (12/29) 7:41 AM EST (12/29)
Length of Visible Light 9h 52m
Length of Day
8h 43m
Full, 98% of the Moon is Illuminated
Dec 29
Full
Jan 4
Last Quarter
Jan 11
New
Jan 18
First Quarter
Jan 26
Full

Hourly Weather History & Observations

Time (EST) Temp. Windchill Dew Point Humidity Pressure Visibility Wind Dir Wind Speed Gust Speed Precip Events Conditions
12:26 AM 19.4 °F 8.6 °F 12.2 °F 74% 29.88 in 10.0 mi WNW 9.2 mph 17.3 mph N/A   Mostly Cloudy
12:53 AM 21.0 °F 10.6 °F 14.0 °F 74% 29.92 in 10.0 mi NNW 9.2 mph - N/A   Overcast
1:53 AM 21.0 °F 9.9 °F 12.9 °F 71% 29.93 in 10.0 mi WNW 10.4 mph - N/A   Overcast
2:53 AM 19.9 °F 7.3 °F 12.9 °F 74% 29.93 in 10.0 mi West 12.7 mph 18.4 mph N/A   Scattered Clouds
3:53 AM 19.9 °F 10.1 °F 12.9 °F 74% 29.93 in 10.0 mi West 8.1 mph - N/A   Clear
4:53 AM 19.0 °F 7.5 °F 12.9 °F 77% 29.95 in 10.0 mi West 10.4 mph 18.4 mph N/A   Clear
5:53 AM 19.0 °F 11.1 °F 14.0 °F 81% 29.94 in 10.0 mi Variable 5.8 mph - N/A   Clear
7:53 AM 19.0 °F 6.8 °F 14.0 °F 81% 29.97 in 10.0 mi WNW 11.5 mph - N/A   Clear
8:53 AM 19.9 °F 9.3 °F 14.0 °F 78% 29.98 in 10.0 mi WNW 9.2 mph - N/A   Clear
9:53 AM 21.9 °F 12.5 °F 14.0 °F 72% 29.99 in 10.0 mi WNW 8.1 mph - N/A   Clear
10:53 AM 21.9 °F 15.7 °F 14.0 °F 72% 29.96 in 10.0 mi WNW 4.6 mph - N/A   Clear
11:53 AM 24.1 °F 19.7 °F 15.1 °F 69% 29.94 in 10.0 mi Variable 3.5 mph - N/A   Clear
12:53 PM 25.0 °F - 15.1 °F 66% 29.91 in 9.0 mi Calm Calm - N/A   Clear
1:53 PM 24.1 °F - 15.1 °F 69% 29.90 in 10.0 mi Calm Calm - N/A   Clear
2:53 PM 25.0 °F - 15.1 °F 66% 29.89 in 10.0 mi Calm Calm - N/A   Clear
3:53 PM 24.1 °F - 16.0 °F 71% 29.86 in 10.0 mi Calm Calm - N/A   Scattered Clouds
4:53 PM 23.0 °F 18.4 °F 16.0 °F 74% 29.84 in 10.0 mi East 3.5 mph - N/A   Overcast
5:53 PM 23.0 °F 18.4 °F 17.1 °F 78% 29.83 in 10.0 mi NE 3.5 mph - N/A   Overcast
6:53 PM 21.9 °F - 17.1 °F 82% 29.82 in 10.0 mi Calm Calm - N/A   Overcast
7:53 PM 21.0 °F 16.2 °F 16.0 °F 81% 29.80 in 10.0 mi ENE 3.5 mph - N/A   Overcast
8:05 PM 21.2 °F 13.6 °F 15.8 °F 80% 29.76 in 10.0 mi ENE 5.8 mph - N/A   Overcast
8:15 PM 21.2 °F 13.6 °F 17.6 °F 86% 29.75 in 10.0 mi ENE 5.8 mph - N/A   Overcast
8:53 PM 21.0 °F 13.4 °F 16.0 °F 81% 29.73 in 10.0 mi NE 5.8 mph - N/A   Overcast
9:53 PM 19.9 °F 11.1 °F 14.0 °F 78% 29.70 in 10.0 mi NNE 6.9 mph - N/A   Overcast
10:53 PM 19.9 °F 10.1 °F 14.0 °F 78% 29.64 in 10.0 mi NNE 8.1 mph - N/A   Overcast
11:53 PM 19.9 °F 10.1 °F 14.0 °F 78% 29.60 in 8.0 mi NNE 8.1 mph - 0.00 in Snow Light Snow